Torna al catalogo

DELTA 1 DEB

AttivoPO
NORAD 21293·DEBRIS·🇺🇸 United States

Lanciato Jun 12, 1975 da Vandenberg Space Force Base

Loading…

Prossimi Passaggi (prossime 24 ore)

TLE

AggiornatoSource: Space-Track

Epoca: Sep 14, 2026, 06:41 UTC

1 21293U 75052AE  26257.27863969  .00000184  00000-0  69855-3 0  9997
2 21293  99.9214  23.3988 0273036 145.9661 245.9021 12.91791123664688

Traccia DELTA 1 DEB in tempo reale con AllMySat

Download on the App Store